Year,Month,Day,Hour,Minute,Value (Times are PST for windgust in km/hr)
2012,12,04,00,00,14.50
2012,12,04,00,01,14.50
2012,12,04,00,02,11.30
2012,12,04,00,03,12.90
2012,12,04,00,04,16.10
2012,12,04,00,05,27.40
2012,12,04,00,06,20.90
2012,12,04,00,07,19.30
2012,12,04,00,08,19.30
2012,12,04,00,09,16.10
2012,12,04,00,10,9.60
2012,12,04,00,11,14.50
2012,12,04,00,12,12.90
2012,12,04,00,13,20.90
2012,12,04,00,14,17.70
2012,12,04,00,15,20.90
2012,12,04,00,16,25.70
2012,12,04,00,17,35.40
2012,12,04,00,18,20.90
2012,12,04,00,19,24.20
2012,12,04,00,20,19.30
2012,12,04,00,21,22.50
2012,12,04,00,22,24.20
2012,12,04,00,23,27.40
2012,12,04,00,24,11.30
2012,12,04,00,25,17.70
2012,12,04,00,26,25.70
2012,12,04,00,27,22.50
2012,12,04,00,28,22.50
2012,12,04,00,29,20.90
2012,12,04,00,30,20.90
2012,12,04,00,31,17.70
2012,12,04,00,32,29.00
2012,12,04,00,33,22.50
2012,12,04,00,34,17.70
2012,12,04,00,35,20.90
2012,12,04,00,36,17.70
2012,12,04,00,37,19.30
2012,12,04,00,38,20.90
2012,12,04,00,39,20.90
2012,12,04,00,40,24.20
2012,12,04,00,41,14.50
2012,12,04,00,42,14.50
2012,12,04,00,43,14.50
2012,12,04,00,44,14.50
2012,12,04,00,45,14.50
2012,12,04,00,46,25.70
2012,12,04,00,47,24.20
2012,12,04,00,48,32.20
2012,12,04,00,49,22.50
2012,12,04,00,50,17.70
2012,12,04,00,51,16.10
2012,12,04,00,52,24.20
2012,12,04,00,53,17.70
2012,12,04,00,54,22.50
2012,12,04,00,55,19.30
2012,12,04,00,56,27.40
2012,12,04,00,57,29.00
2012,12,04,00,58,37.00
2012,12,04,00,59,30.60
2012,12,04,01,00,29.00
2012,12,04,01,01,29.00
2012,12,04,01,02,27.40
2012,12,04,01,03,27.40
2012,12,04,01,04,32.20
2012,12,04,01,05,30.60
2012,12,04,01,06,20.90
2012,12,04,01,07,27.40
2012,12,04,01,08,30.60
2012,12,04,01,09,27.40
2012,12,04,01,10,29.00
2012,12,04,01,11,29.00
2012,12,04,01,12,25.70
2012,12,04,01,13,25.70
2012,12,04,01,14,30.60
2012,12,04,01,15,27.40
2012,12,04,01,16,29.00
2012,12,04,01,17,27.40
2012,12,04,01,18,25.70
2012,12,04,01,19,22.50
2012,12,04,01,20,24.20
2012,12,04,01,21,25.70
2012,12,04,01,22,29.00
2012,12,04,01,23,48.30
2012,12,04,01,24,45.10
2012,12,04,01,25,25.70
2012,12,04,01,26,32.20
2012,12,04,01,27,29.00
2012,12,04,01,28,20.90
2012,12,04,01,29,22.50
2012,12,04,01,30,22.50
2012,12,04,01,31,24.20
2012,12,04,01,32,22.50
2012,12,04,01,33,35.40
2012,12,04,01,34,35.40
2012,12,04,01,35,41.80
2012,12,04,01,36,32.20
2012,12,04,01,37,24.20
2012,12,04,01,38,35.40
2012,12,04,01,39,38.60
2012,12,04,01,40,29.00
2012,12,04,01,41,33.80
2012,12,04,01,42,32.20
2012,12,04,01,43,41.80
2012,12,04,01,44,35.40
2012,12,04,01,45,25.70
2012,12,04,01,46,29.00
2012,12,04,01,47,33.80
2012,12,04,01,48,25.70
2012,12,04,01,49,27.40
2012,12,04,01,50,33.80
2012,12,04,01,51,25.70
2012,12,04,01,52,22.50
2012,12,04,01,53,32.20
2012,12,04,01,54,37.00
2012,12,04,01,55,27.40
2012,12,04,01,56,35.40
2012,12,04,01,57,22.50
2012,12,04,01,58,30.60
2012,12,04,01,59,27.40
2012,12,04,02,00,33.80
2012,12,04,02,01,17.70
2012,12,04,02,02,32.20
2012,12,04,02,03,24.20
2012,12,04,02,04,30.60
2012,12,04,02,05,27.40
2012,12,04,02,06,38.60
2012,12,04,02,07,33.80
2012,12,04,02,08,30.60
2012,12,04,02,09,30.60
2012,12,04,02,10,32.20
2012,12,04,02,11,35.40
2012,12,04,02,12,37.00
2012,12,04,02,13,30.60
2012,12,04,02,14,30.60
2012,12,04,02,15,37.00
2012,12,04,02,16,38.60
2012,12,04,02,17,32.20
2012,12,04,02,18,46.70
2012,12,04,02,19,35.40
2012,12,04,02,20,46.70
2012,12,04,02,21,37.00
2012,12,04,02,22,29.00
2012,12,04,02,23,32.20
2012,12,04,02,24,45.10
2012,12,04,02,25,35.40
2012,12,04,02,26,38.60
2012,12,04,02,27,41.80
2012,12,04,02,28,35.40
2012,12,04,02,29,33.80
2012,12,04,02,30,29.00
2012,12,04,02,31,38.60
2012,12,04,02,32,37.00
2012,12,04,02,33,29.00
2012,12,04,02,34,30.60
2012,12,04,02,35,35.40
2012,12,04,02,36,35.40
2012,12,04,02,37,35.40
2012,12,04,02,38,40.20
2012,12,04,02,39,38.60
2012,12,04,02,40,35.40
2012,12,04,02,41,25.70
2012,12,04,02,42,38.60
2012,12,04,02,43,27.40
2012,12,04,02,44,38.60
2012,12,04,02,45,53.10
2012,12,04,02,46,29.00
2012,12,04,02,47,32.20
2012,12,04,02,48,49.90
2012,12,04,02,49,33.80
2012,12,04,02,50,40.20
2012,12,04,02,51,30.60
2012,12,04,02,52,43.50
2012,12,04,02,53,37.00
2012,12,04,02,54,35.40
2012,12,04,02,55,27.40
2012,12,04,02,56,30.60
2012,12,04,02,57,22.50
2012,12,04,02,58,27.40
2012,12,04,02,59,37.00
2012,12,04,03,00,25.70
2012,12,04,03,01,27.40
2012,12,04,03,02,22.50
2012,12,04,03,03,35.40
2012,12,04,03,04,30.60
2012,12,04,03,05,40.20
2012,12,04,03,06,33.80
2012,12,04,03,07,33.80
2012,12,04,03,08,32.20
2012,12,04,03,09,33.80
2012,12,04,03,10,35.40
2012,12,04,03,11,29.00
2012,12,04,03,12,22.50
2012,12,04,03,13,20.90
2012,12,04,03,14,27.40
2012,12,04,03,15,32.20
2012,12,04,03,16,27.40
2012,12,04,03,17,29.00
2012,12,04,03,18,33.80
2012,12,04,03,19,37.00
2012,12,04,03,20,37.00
2012,12,04,03,21,33.80
2012,12,04,03,22,29.00
2012,12,04,03,23,33.80
2012,12,04,03,24,32.20
2012,12,04,03,25,30.60
2012,12,04,03,26,27.40
2012,12,04,03,27,25.70
2012,12,04,03,28,29.00
2012,12,04,03,29,32.20
2012,12,04,03,30,22.50
2012,12,04,03,31,22.50
2012,12,04,03,32,25.70
2012,12,04,03,33,33.80
2012,12,04,03,34,32.20
2012,12,04,03,35,25.70
2012,12,04,03,36,24.20
2012,12,04,03,37,22.50
2012,12,04,03,38,35.40
2012,12,04,03,39,33.80
2012,12,04,03,40,32.20
2012,12,04,03,41,32.20
2012,12,04,03,42,25.70
2012,12,04,03,43,30.60
2012,12,04,03,44,30.60
2012,12,04,03,45,35.40
2012,12,04,03,46,22.50
2012,12,04,03,47,25.70
2012,12,04,03,48,25.70
2012,12,04,03,49,29.00
2012,12,04,03,50,35.40
2012,12,04,03,51,30.60
2012,12,04,03,52,33.80
2012,12,04,03,53,22.50
2012,12,04,03,54,27.40
2012,12,04,03,55,32.20
2012,12,04,03,56,29.00
2012,12,04,03,57,30.60
2012,12,04,03,58,22.50
2012,12,04,03,59,22.50
2012,12,04,04,00,29.00
2012,12,04,04,01,33.80
2012,12,04,04,02,30.60
2012,12,04,04,03,24.20
2012,12,04,04,04,37.00
2012,12,04,04,05,29.00
2012,12,04,04,06,33.80
2012,12,04,04,07,30.60
2012,12,04,04,08,25.70
2012,12,04,04,09,30.60
2012,12,04,04,10,25.70
2012,12,04,04,11,20.90
2012,12,04,04,12,32.20
2012,12,04,04,13,27.40
2012,12,04,04,14,32.20
2012,12,04,04,15,25.70
2012,12,04,04,16,22.50
2012,12,04,04,17,22.50
2012,12,04,04,18,27.40
2012,12,04,04,19,25.70
2012,12,04,04,20,25.70
2012,12,04,04,21,27.40
2012,12,04,04,22,25.70
2012,12,04,04,23,30.60
2012,12,04,04,24,25.70
2012,12,04,04,25,20.90
2012,12,04,04,26,29.00
2012,12,04,04,27,25.70
2012,12,04,04,28,24.20
2012,12,04,04,29,32.20
2012,12,04,04,30,25.70
2012,12,04,04,31,29.00
2012,12,04,04,32,20.90
2012,12,04,04,33,25.70
2012,12,04,04,34,27.40
2012,12,04,04,35,20.90
2012,12,04,04,36,22.50
2012,12,04,04,37,27.40
2012,12,04,04,38,22.50
2012,12,04,04,39,24.20
2012,12,04,04,40,22.50
2012,12,04,04,41,24.20
2012,12,04,04,42,16.10
2012,12,04,04,43,25.70
2012,12,04,04,44,20.90
2012,12,04,04,45,19.30
2012,12,04,04,46,29.00
2012,12,04,04,47,27.40
2012,12,04,04,48,27.40
2012,12,04,04,49,29.00
2012,12,04,04,50,20.90
2012,12,04,04,51,32.20
2012,12,04,04,52,30.60
2012,12,04,04,53,29.00
2012,12,04,04,54,32.20
2012,12,04,04,55,27.40
2012,12,04,04,56,32.20
2012,12,04,04,57,24.20
2012,12,04,04,58,25.70
2012,12,04,04,59,33.80
2012,12,04,05,00,27.40
2012,12,04,05,01,29.00
2012,12,04,05,02,24.20
2012,12,04,05,03,40.20
2012,12,04,05,04,30.60
2012,12,04,05,05,24.20
2012,12,04,05,06,25.70
2012,12,04,05,07,30.60
2012,12,04,05,08,29.00
2012,12,04,05,09,29.00
2012,12,04,05,10,32.20
2012,12,04,05,11,25.70
2012,12,04,05,12,22.50
2012,12,04,05,13,27.40
2012,12,04,05,14,38.60
2012,12,04,05,15,29.00
2012,12,04,05,16,25.70
2012,12,04,05,17,30.60
2012,12,04,05,18,30.60
2012,12,04,05,19,30.60
2012,12,04,05,20,33.80
2012,12,04,05,21,32.20
2012,12,04,05,22,20.90
2012,12,04,05,23,17.70
2012,12,04,05,24,24.20
2012,12,04,05,25,32.20
2012,12,04,05,26,24.20
2012,12,04,05,27,40.20
2012,12,04,05,28,37.00
2012,12,04,05,29,33.80
2012,12,04,05,30,27.40
2012,12,04,05,31,32.20
2012,12,04,05,32,32.20
2012,12,04,05,33,25.70
2012,12,04,05,34,33.80
2012,12,04,05,35,20.90
2012,12,04,05,36,27.40
2012,12,04,05,37,29.00
2012,12,04,05,38,35.40
2012,12,04,05,39,38.60
2012,12,04,05,40,24.20
2012,12,04,05,41,35.40
2012,12,04,05,42,27.40
2012,12,04,05,43,32.20
2012,12,04,05,44,16.10
2012,12,04,05,45,29.00
2012,12,04,05,46,25.70
2012,12,04,05,47,35.40
2012,12,04,05,48,20.90
2012,12,04,05,49,27.40
2012,12,04,05,50,27.40
2012,12,04,05,51,29.00
2012,12,04,05,52,35.40
2012,12,04,05,53,30.60
2012,12,04,05,54,27.40
2012,12,04,05,55,30.60
2012,12,04,05,56,27.40
2012,12,04,05,57,25.70
2012,12,04,05,58,24.20
2012,12,04,05,59,20.90
2012,12,04,06,00,30.60
2012,12,04,06,01,30.60
2012,12,04,06,02,17.70
2012,12,04,06,03,19.30
2012,12,04,06,04,33.80
2012,12,04,06,05,29.00
2012,12,04,06,06,25.70
2012,12,04,06,07,30.60
2012,12,04,06,08,22.50
2012,12,04,06,09,24.20
2012,12,04,06,10,24.20
2012,12,04,06,11,16.10
2012,12,04,06,12,19.30
2012,12,04,06,13,30.60
2012,12,04,06,14,32.20
2012,12,04,06,15,29.00
2012,12,04,06,16,25.70
2012,12,04,06,17,25.70
2012,12,04,06,18,32.20
2012,12,04,06,19,25.70
2012,12,04,06,20,24.20
2012,12,04,06,21,19.30
2012,12,04,06,22,20.90
2012,12,04,06,23,20.90
2012,12,04,06,24,27.40
2012,12,04,06,25,29.00
2012,12,04,06,26,30.60
2012,12,04,06,27,27.40
2012,12,04,06,28,22.50
2012,12,04,06,29,20.90
2012,12,04,06,30,22.50
2012,12,04,06,31,24.20
2012,12,04,06,32,20.90
2012,12,04,06,33,22.50
2012,12,04,06,34,20.90
2012,12,04,06,35,20.90
2012,12,04,06,36,27.40
2012,12,04,06,37,24.20
2012,12,04,06,38,24.20
2012,12,04,06,39,19.30
2012,12,04,06,40,16.10
2012,12,04,06,41,19.30
2012,12,04,06,42,20.90
2012,12,04,06,43,3.20
2012,12,04,06,44,6.40
2012,12,04,06,45,4.80
2012,12,04,06,46,3.20
2012,12,04,06,47,3.20
2012,12,04,06,48,4.80
2012,12,04,06,49,4.80
2012,12,04,06,50,9.60
2012,12,04,06,51,8.10
2012,12,04,06,52,6.40
2012,12,04,06,53,8.10
2012,12,04,06,54,8.10
2012,12,04,06,55,24.20
2012,12,04,06,56,19.30
2012,12,04,06,57,17.70
2012,12,04,06,58,11.30
2012,12,04,06,59,19.30
2012,12,04,07,00,17.70
2012,12,04,07,01,19.30
2012,12,04,07,02,17.70
2012,12,04,07,03,24.20
2012,12,04,07,04,11.30
2012,12,04,07,05,11.30
2012,12,04,07,06,8.10
2012,12,04,07,07,6.40
2012,12,04,07,08,9.60
2012,12,04,07,09,11.30
2012,12,04,07,10,24.20
2012,12,04,07,11,9.60
2012,12,04,07,12,6.40
2012,12,04,07,13,8.10
2012,12,04,07,14,12.90
2012,12,04,07,15,17.70
2012,12,04,07,16,22.50
2012,12,04,07,17,6.40
2012,12,04,07,18,9.60
2012,12,04,07,19,4.80
2012,12,04,07,20,16.10
2012,12,04,07,21,14.50
2012,12,04,07,22,9.60
2012,12,04,07,23,8.10
2012,12,04,07,24,6.40
2012,12,04,07,25,4.80
2012,12,04,07,26,9.60
2012,12,04,07,27,17.70
2012,12,04,07,28,17.70
2012,12,04,07,29,14.50
2012,12,04,07,30,16.10
2012,12,04,07,31,9.60
2012,12,04,07,32,14.50
2012,12,04,07,33,20.90
2012,12,04,07,34,35.40
2012,12,04,07,35,20.90
2012,12,04,07,36,27.40
2012,12,04,07,37,35.40
2012,12,04,07,38,33.80
2012,12,04,07,39,37.00
2012,12,04,07,40,37.00
2012,12,04,07,41,37.00
2012,12,04,07,42,32.20
2012,12,04,07,43,25.70
2012,12,04,07,44,35.40
2012,12,04,07,45,30.60
2012,12,04,07,46,25.70
2012,12,04,07,47,37.00
2012,12,04,07,48,29.00
2012,12,04,07,49,32.20
2012,12,04,07,50,46.70
2012,12,04,07,51,38.60
2012,12,04,07,52,64.40
2012,12,04,07,53,43.50
2012,12,04,07,54,49.90
2012,12,04,07,55,32.20
2012,12,04,07,56,37.00
2012,12,04,07,57,38.60
2012,12,04,07,58,43.50
2012,12,04,07,59,35.40
2012,12,04,08,00,38.60
2012,12,04,08,01,33.80
2012,12,04,08,02,51.50
2012,12,04,08,03,38.60
2012,12,04,08,04,51.50
2012,12,04,08,05,38.60
2012,12,04,08,06,37.00
2012,12,04,08,07,29.00
2012,12,04,08,08,40.20
2012,12,04,08,09,53.10
2012,12,04,08,10,53.10
2012,12,04,08,11,33.80
2012,12,04,08,12,49.90
2012,12,04,08,13,37.00
2012,12,04,08,14,48.30
2012,12,04,08,15,54.70
2012,12,04,08,16,53.10
2012,12,04,08,17,49.90
2012,12,04,08,18,48.30
2012,12,04,08,19,37.00
2012,12,04,08,20,48.30
2012,12,04,08,21,59.50
2012,12,04,08,22,46.70
2012,12,04,08,23,48.30
2012,12,04,08,24,37.00
2012,12,04,08,25,30.60
2012,12,04,08,26,19.30
2012,12,04,08,27,29.00
2012,12,04,08,28,37.00
2012,12,04,08,29,40.20
2012,12,04,08,30,24.20
2012,12,04,08,31,40.20
2012,12,04,08,32,45.10
2012,12,04,08,33,51.50
2012,12,04,08,34,30.60
2012,12,04,08,35,22.50
2012,12,04,08,36,33.80
2012,12,04,08,37,33.80
2012,12,04,08,38,33.80
2012,12,04,08,39,43.50
2012,12,04,08,40,29.00
2012,12,04,08,41,54.70
2012,12,04,08,42,53.10
2012,12,04,08,43,38.60
2012,12,04,08,44,54.70
2012,12,04,08,45,43.50
2012,12,04,08,46,35.40
2012,12,04,08,47,43.50
2012,12,04,08,48,48.30
2012,12,04,08,49,29.00
2012,12,04,08,50,41.80
2012,12,04,08,51,27.40
2012,12,04,08,52,33.80
2012,12,04,08,53,38.60
2012,12,04,08,54,24.20
2012,12,04,08,55,41.80
2012,12,04,08,56,40.20
2012,12,04,08,57,41.80
2012,12,04,08,58,38.60
2012,12,04,08,59,29.00
2012,12,04,09,00,30.60
2012,12,04,09,01,20.90
2012,12,04,09,02,24.20
2012,12,04,09,03,37.00
2012,12,04,09,04,22.50
2012,12,04,09,05,19.30
2012,12,04,09,06,32.20
2012,12,04,09,07,24.20
2012,12,04,09,08,29.00
2012,12,04,09,09,30.60
2012,12,04,09,10,37.00
2012,12,04,09,11,43.50
2012,12,04,09,12,32.20
2012,12,04,09,13,29.00
2012,12,04,09,14,37.00
2012,12,04,09,15,22.50
2012,12,04,09,16,25.70
2012,12,04,09,17,38.60
2012,12,04,09,18,32.20
2012,12,04,09,19,45.10
2012,12,04,09,20,38.60
2012,12,04,09,21,29.00
2012,12,04,09,22,20.90
2012,12,04,09,23,33.80
2012,12,04,09,24,25.70
2012,12,04,09,25,16.10
2012,12,04,09,26,12.90
2012,12,04,09,27,9.60
2012,12,04,09,28,14.50
2012,12,04,09,29,27.40
2012,12,04,09,30,16.10
2012,12,04,09,31,30.60
2012,12,04,09,32,19.30
2012,12,04,09,33,14.50
2012,12,04,09,34,22.50
2012,12,04,09,35,20.90
2012,12,04,09,36,11.30
2012,12,04,09,37,8.10
2012,12,04,09,38,14.50
2012,12,04,09,39,17.70
2012,12,04,09,40,17.70
2012,12,04,09,41,25.70
2012,12,04,09,42,29.00
2012,12,04,09,43,9.60
2012,12,04,09,44,11.30
2012,12,04,09,45,14.50
2012,12,04,09,46,27.40
2012,12,04,09,47,27.40
2012,12,04,09,48,27.40
2012,12,04,09,49,11.30
2012,12,04,09,50,25.70
2012,12,04,09,51,22.50
2012,12,04,09,52,24.20
2012,12,04,09,53,14.50
2012,12,04,09,54,25.70
2012,12,04,09,55,17.70
2012,12,04,09,56,19.30
2012,12,04,09,57,16.10
2012,12,04,09,58,6.40
2012,12,04,10,00,4.80
2012,12,04,10,01,4.80
2012,12,04,10,02,4.80
2012,12,04,10,03,11.30
2012,12,04,10,04,17.70
2012,12,04,10,05,9.60
2012,12,04,10,06,11.30
2012,12,04,10,07,11.30
2012,12,04,10,08,17.70
2012,12,04,10,09,14.50
2012,12,04,10,10,11.30
2012,12,04,10,11,16.10
2012,12,04,10,12,8.10
2012,12,04,10,13,14.50
2012,12,04,10,14,3.20
2012,12,04,10,15,6.40
2012,12,04,10,16,9.60
2012,12,04,10,17,8.10
2012,12,04,10,18,9.60
2012,12,04,10,19,14.50
2012,12,04,10,20,4.80
2012,12,04,10,21,3.20
2012,12,04,10,22,6.40
2012,12,04,10,23,8.10
2012,12,04,10,24,8.10
2012,12,04,10,25,9.60
2012,12,04,10,26,9.60
2012,12,04,10,27,9.60
2012,12,04,10,28,4.80
2012,12,04,10,29,4.80
2012,12,04,10,30,4.80
2012,12,04,10,31,19.30
2012,12,04,10,32,25.70
2012,12,04,10,33,19.30
2012,12,04,10,34,25.70
2012,12,04,10,35,16.10
2012,12,04,10,36,24.20
2012,12,04,10,37,19.30
2012,12,04,10,38,24.20
2012,12,04,10,39,11.30
2012,12,04,10,40,20.90
2012,12,04,10,41,14.50
2012,12,04,10,42,22.50
2012,12,04,10,43,16.10
2012,12,04,10,44,19.30
2012,12,04,10,45,32.20
2012,12,04,10,46,20.90
2012,12,04,10,47,19.30
2012,12,04,10,48,14.50
2012,12,04,10,49,14.50
2012,12,04,10,50,19.30
2012,12,04,10,51,14.50
2012,12,04,10,52,20.90
2012,12,04,10,53,22.50
2012,12,04,10,54,25.70
2012,12,04,10,55,20.90
2012,12,04,10,56,22.50
2012,12,04,10,57,29.00
2012,12,04,10,58,17.70
2012,12,04,10,59,4.80
2012,12,04,11,00,4.80
2012,12,04,11,01,12.90
2012,12,04,11,02,29.00
2012,12,04,11,03,16.10
2012,12,04,11,04,11.30
2012,12,04,11,05,14.50
2012,12,04,11,06,6.40
2012,12,04,11,07,8.10
2012,12,04,11,08,17.70
2012,12,04,11,09,24.20
2012,12,04,11,10,17.70
2012,12,04,11,11,19.30
2012,12,04,11,12,20.90
2012,12,04,11,13,25.70
2012,12,04,11,14,22.50
2012,12,04,11,15,16.10
2012,12,04,11,16,16.10
2012,12,04,11,17,20.90
2012,12,04,11,18,20.90
2012,12,04,11,19,25.70
2012,12,04,11,20,27.40
2012,12,04,11,21,25.70
2012,12,04,11,22,17.70
2012,12,04,11,23,16.10
2012,12,04,11,24,14.50
2012,12,04,11,25,9.60
2012,12,04,11,26,9.60
2012,12,04,11,27,6.40
2012,12,04,11,28,6.40
2012,12,04,11,29,14.50
2012,12,04,11,30,14.50
2012,12,04,11,31,8.10
2012,12,04,11,32,19.30
2012,12,04,11,33,14.50
2012,12,04,11,34,17.70
2012,12,04,11,35,6.40
2012,12,04,11,36,8.10
2012,12,04,11,37,8.10
2012,12,04,11,38,8.10
2012,12,04,11,39,8.10
2012,12,04,11,40,9.60
2012,12,04,11,41,9.60
2012,12,04,11,42,20.90
2012,12,04,11,43,16.10
2012,12,04,11,44,8.10
2012,12,04,11,45,8.10
2012,12,04,11,46,8.10
2012,12,04,11,47,25.70
2012,12,04,11,48,32.20
2012,12,04,11,49,29.00
2012,12,04,11,50,17.70
2012,12,04,11,51,12.90
2012,12,04,11,52,6.40
2012,12,04,11,53,29.00
2012,12,04,11,54,20.90
2012,12,04,11,55,27.40
2012,12,04,11,56,14.50
2012,12,04,11,57,6.40
2012,12,04,11,58,8.10
2012,12,04,11,59,9.60
2012,12,04,12,00,4.80
2012,12,04,12,01,6.40
2012,12,04,12,02,11.30
2012,12,04,12,03,14.50
2012,12,04,12,04,11.30
2012,12,04,12,05,6.40
2012,12,04,12,06,4.80
2012,12,04,12,07,4.80
2012,12,04,12,08,4.80
2012,12,04,12,09,12.90
2012,12,04,12,10,6.40
2012,12,04,12,11,3.20
2012,12,04,12,12,4.80
2012,12,04,12,13,6.40
2012,12,04,12,14,9.60
2012,12,04,12,15,6.40
2012,12,04,12,16,6.40
2012,12,04,12,17,4.80
2012,12,04,12,18,6.40
2012,12,04,12,19,3.20
2012,12,04,12,20,3.20
2012,12,04,12,21,3.20
2012,12,04,12,22,3.20
2012,12,04,12,23,3.20
2012,12,04,12,24,3.20
2012,12,04,12,25,3.20
2012,12,04,12,26,6.40
2012,12,04,12,27,8.10
2012,12,04,12,28,6.40
2012,12,04,12,29,8.10
2012,12,04,12,30,8.10
2012,12,04,12,31,17.70
2012,12,04,12,32,3.20
2012,12,04,12,33,4.80
2012,12,04,12,34,3.20
2012,12,04,12,35,3.20
2012,12,04,12,36,8.10
2012,12,04,12,37,3.20
2012,12,04,12,38,1.60
2012,12,04,12,39,8.10
2012,12,04,12,40,4.80
2012,12,04,12,41,12.90
2012,12,04,12,42,11.30
2012,12,04,12,43,11.30
2012,12,04,12,44,19.30
2012,12,04,12,45,40.20
2012,12,04,12,46,27.40
2012,12,04,12,47,6.40
2012,12,04,12,48,1.60
2012,12,04,12,49,4.80
2012,12,04,12,50,1.60
2012,12,04,12,51,8.10
2012,12,04,12,52,17.70
2012,12,04,12,53,17.70
2012,12,04,12,54,16.10
2012,12,04,12,55,19.30
2012,12,04,12,56,20.90
2012,12,04,12,57,11.30
2012,12,04,12,58,14.50
2012,12,04,12,59,14.50
2012,12,04,13,00,17.70
2012,12,04,13,01,11.30
2012,12,04,13,02,17.70
2012,12,04,13,03,19.30
2012,12,04,13,04,14.50
2012,12,04,13,05,3.20
2012,12,04,13,06,6.40
2012,12,04,13,07,14.50
2012,12,04,13,08,6.40
2012,12,04,13,09,3.20
2012,12,04,13,10,6.40
2012,12,04,13,11,6.40
2012,12,04,13,12,4.80
2012,12,04,13,13,4.80
2012,12,04,13,14,9.60
2012,12,04,13,15,6.40
2012,12,04,13,16,11.30
2012,12,04,13,17,11.30
2012,12,04,13,18,9.60
2012,12,04,13,19,11.30
2012,12,04,13,20,11.30
2012,12,04,13,21,9.60
2012,12,04,13,22,9.60
2012,12,04,13,23,11.30
2012,12,04,13,24,20.90
2012,12,04,13,25,20.90
2012,12,04,13,26,8.10
2012,12,04,13,27,14.50
2012,12,04,13,28,8.10
2012,12,04,13,29,6.40
2012,12,04,13,30,16.10
2012,12,04,13,31,11.30
2012,12,04,13,32,8.10
2012,12,04,13,33,9.60
2012,12,04,13,34,8.10
2012,12,04,13,35,19.30
2012,12,04,13,36,19.30
2012,12,04,13,37,8.10
2012,12,04,13,38,14.50
2012,12,04,13,39,14.50
2012,12,04,13,40,14.50
2012,12,04,13,41,6.40
2012,12,04,13,42,9.60
2012,12,04,13,43,20.90
2012,12,04,13,44,17.70
2012,12,04,13,45,9.60
2012,12,04,13,46,16.10
2012,12,04,13,47,9.60
2012,12,04,13,48,3.20
2012,12,04,13,49,8.10
2012,12,04,13,50,9.60
2012,12,04,13,51,9.60
2012,12,04,13,52,4.80
2012,12,04,13,53,8.10
2012,12,04,13,54,9.60
2012,12,04,13,55,19.30
2012,12,04,13,56,19.30
2012,12,04,13,57,16.10
2012,12,04,13,58,16.10
2012,12,04,13,59,17.70
2012,12,04,14,00,8.10
2012,12,04,14,01,6.40
2012,12,04,14,02,8.10
2012,12,04,14,03,6.40
2012,12,04,14,04,3.20
2012,12,04,14,05,4.80
2012,12,04,14,06,8.10
2012,12,04,14,07,9.60
2012,12,04,14,08,9.60
2012,12,04,14,09,3.20
2012,12,04,14,10,6.40
2012,12,04,14,11,6.40
2012,12,04,14,12,9.60
2012,12,04,14,13,1.60
2012,12,04,14,17,4.80
2012,12,04,14,18,3.20
2012,12,04,14,19,8.10
2012,12,04,14,20,8.10
2012,12,04,14,21,6.40
2012,12,04,14,22,9.60
2012,12,04,14,23,8.10
2012,12,04,14,24,6.40
2012,12,04,14,25,6.40
2012,12,04,14,26,9.60
2012,12,04,14,27,11.30
2012,12,04,14,28,16.10
2012,12,04,14,29,16.10
2012,12,04,14,30,11.30
2012,12,04,14,31,9.60
2012,12,04,14,32,6.40
2012,12,04,14,33,4.80
2012,12,04,14,34,6.40
2012,12,04,14,35,8.10
2012,12,04,14,36,16.10
2012,12,04,14,37,14.50
2012,12,04,14,38,8.10
2012,12,04,14,39,4.80
2012,12,04,14,40,1.60
2012,12,04,14,41,4.80
2012,12,04,14,42,6.40
2012,12,04,14,43,6.40
2012,12,04,14,44,3.20
2012,12,04,14,45,6.40
2012,12,04,14,46,1.60
2012,12,04,14,47,6.40
2012,12,04,14,48,4.80
2012,12,04,14,49,1.60
2012,12,04,14,50,1.60
2012,12,04,14,51,6.40
2012,12,04,14,52,6.40
2012,12,04,14,54,1.60
2012,12,04,14,56,3.20
2012,12,04,14,57,3.20
2012,12,04,14,58,1.60
2012,12,04,14,59,8.10
2012,12,04,15,00,6.40
2012,12,04,15,01,3.20
2012,12,04,15,02,1.60
2012,12,04,15,03,4.80
2012,12,04,15,04,6.40
2012,12,04,15,05,6.40
2012,12,04,15,06,4.80
2012,12,04,15,07,4.80
2012,12,04,15,08,4.80
2012,12,04,15,09,4.80
2012,12,04,15,10,4.80
2012,12,04,15,11,3.20
2012,12,04,15,15,1.60
2012,12,04,15,16,1.60
2012,12,04,15,42,3.20
2012,12,04,15,43,1.60
2012,12,04,15,45,3.20
2012,12,04,15,46,4.80
2012,12,04,15,47,4.80
2012,12,04,15,48,8.10
2012,12,04,15,49,6.40
2012,12,04,15,50,6.40
2012,12,04,15,51,4.80
2012,12,04,15,52,4.80
2012,12,04,15,53,9.60
2012,12,04,15,54,9.60
2012,12,04,15,55,14.50
2012,12,04,15,56,12.90
2012,12,04,15,57,8.10
2012,12,04,15,58,8.10
2012,12,04,15,59,8.10
2012,12,04,16,00,8.10
2012,12,04,16,01,11.30
2012,12,04,16,02,9.60
2012,12,04,16,03,8.10
2012,12,04,16,04,11.30
2012,12,04,16,05,8.10
2012,12,04,16,06,12.90
2012,12,04,16,07,17.70
2012,12,04,16,08,20.90
2012,12,04,16,09,11.30
2012,12,04,16,10,11.30
2012,12,04,16,11,12.90
2012,12,04,16,12,9.60
2012,12,04,16,13,19.30
2012,12,04,16,14,16.10
2012,12,04,16,15,16.10
2012,12,04,16,16,11.30
2012,12,04,16,17,11.30
2012,12,04,16,18,16.10
2012,12,04,16,19,16.10
2012,12,04,16,20,16.10
2012,12,04,16,21,14.50
2012,12,04,16,22,17.70
2012,12,04,16,23,17.70
2012,12,04,16,24,6.40
2012,12,04,16,25,11.30
2012,12,04,16,26,6.40
2012,12,04,16,27,4.80
2012,12,04,16,28,9.60
2012,12,04,16,29,16.10
2012,12,04,16,30,14.50
2012,12,04,16,31,16.10
2012,12,04,16,32,11.30
2012,12,04,16,33,8.10
2012,12,04,16,34,8.10
2012,12,04,16,35,6.40
2012,12,04,16,36,16.10
2012,12,04,16,37,11.30
2012,12,04,16,38,4.80
2012,12,04,16,39,3.20
2012,12,04,16,40,3.20
2012,12,04,16,45,6.40
2012,12,04,16,46,3.20
2012,12,04,16,47,8.10
2012,12,04,16,48,6.40
2012,12,04,16,49,3.20
2012,12,04,16,55,1.60
2012,12,04,16,56,1.60
2012,12,04,16,57,3.20
2012,12,04,16,59,1.60
2012,12,04,17,00,3.20
2012,12,04,17,01,6.40
2012,12,04,17,02,6.40
2012,12,04,17,03,4.80
2012,12,04,17,04,3.20
2012,12,04,17,05,3.20
2012,12,04,17,06,6.40
2012,12,04,17,07,4.80
2012,12,04,17,08,1.60
2012,12,04,17,09,3.20
2012,12,04,17,10,1.60
2012,12,04,17,13,8.10
2012,12,04,17,14,6.40
2012,12,04,17,15,3.20
2012,12,04,17,16,3.20
2012,12,04,17,17,1.60
2012,12,04,17,18,3.20
2012,12,04,17,19,3.20
2012,12,04,17,20,1.60
2012,12,04,17,21,3.20
2012,12,04,17,22,3.20
2012,12,04,17,23,9.60
2012,12,04,17,24,6.40
2012,12,04,17,25,16.10
2012,12,04,17,26,4.80
2012,12,04,17,27,6.40
2012,12,04,17,28,9.60
2012,12,04,17,29,4.80
2012,12,04,17,30,17.70
2012,12,04,17,31,11.30
2012,12,04,17,32,14.50
2012,12,04,17,33,9.60
2012,12,04,17,34,8.10
2012,12,04,17,35,11.30
2012,12,04,17,36,3.20
2012,12,04,17,37,3.20
2012,12,04,17,38,1.60
2012,12,04,17,39,1.60
2012,12,04,17,40,1.60
2012,12,04,17,41,3.20
2012,12,04,17,42,4.80
2012,12,04,17,43,4.80
2012,12,04,17,44,3.20
2012,12,04,17,45,4.80
2012,12,04,17,46,6.40
2012,12,04,17,47,8.10
2012,12,04,17,48,1.60
2012,12,04,17,49,3.20
2012,12,04,17,50,3.20
2012,12,04,17,51,6.40
2012,12,04,17,52,6.40
2012,12,04,17,53,6.40
2012,12,04,17,54,8.10
2012,12,04,17,55,8.10
2012,12,04,17,56,8.10
2012,12,04,17,57,8.10
2012,12,04,17,58,11.30
2012,12,04,17,59,16.10
2012,12,04,18,00,19.30
2012,12,04,18,01,24.20
2012,12,04,18,02,8.10
2012,12,04,18,03,4.80
2012,12,04,18,04,6.40
2012,12,04,18,05,9.60
2012,12,04,18,06,11.30
2012,12,04,18,07,4.80
2012,12,04,18,08,9.60
2012,12,04,18,09,11.30
2012,12,04,18,10,20.90
2012,12,04,18,11,12.90
2012,12,04,18,12,17.70
2012,12,04,18,13,8.10
2012,12,04,18,14,8.10
2012,12,04,18,15,11.30
2012,12,04,18,16,6.40
2012,12,04,18,17,6.40
2012,12,04,18,18,9.60
2012,12,04,18,19,8.10
2012,12,04,18,20,16.10